Content
SEND FEEDBACK

Daily
Averages
Monthly
Summary
Chile

PUERTO MONTT, CHILE


Home > South America > Chile
Elevation: 282 feet     Latitude: 41 25S     Longitude: 073 05W

WEATHER
 
SELECT A DAY
Number of Records: 179,384;   Date Range: 6/30/96 - 9/28/14
 
SHARE

PRINT THIS DATA

[ ← Previous Day ]
WEATHER ALMANAC - FEBRUARY 13, 2013
[ Next Day → ]
[ °C ]   °F
Weather ElementAverageHighLow
Temperature59.2 °F68 °F (6:00 pm)51.8 °F (5:00 am)
Dewpoint52.6 °F55.4 °F (10:00 am)50 °F (5:00 pm)
Humidity79.3 %100 % (12:00 am)43 % (6:00 pm)
Barometer29.98 in30.01 in (10:00 pm)29.95 in (12:00 am)
Wind Speed5.6 mph10.4 mph (4:00 pm)
Weather ElementAverage
Visibility6 mi
Wind DirectionWNW (279 °)

Weather ElementTotal
Precipitation---
Heating Degree Days5.1 (Base 65)
Growing Degree Days9.9 (Base 50)
Averaged from 30 records on February 13, 2013
WEATHER CONDITIONS BREAKOUT
WIND DIRECTION BREAKOUT
WEATHER BY HOUR - FEBRUARY 13, 2013
[ °C ]   °F
Local TimeTemperatureDewpointHumidityBarometerVisibilityWind DirectionWind SpeedGust SpeedPrecipitationEventsConditions
12:00 AM53.6 °F53.6 °F100 %29.95 in6.2 miNNW (340°)5.8 mphMostly Cloudy
1:00 AM55.4 °F53.6 °F94 %29.95 in6.2 miNNW (330°)5.8 mphMostly Cloudy
2:00 AM53.6 °F53.6 °F100 %29.98 in6.2 miNNW (340°)5.8 mphMostly Cloudy
3:00 AM54.0 °F53.0 °F95 %29.97 in6.0 miNNW (330°)6.9 mphRainLight Rain Showers
3:00 AM53.6 °F53.6 °F100 %29.95 in5.6 miNNW (330°)6.9 mphRainLight Rain Showers
4:00 AM53.6 °F51.8 °F94 %29.95 in6.2 miNNW (330°)3.5 mphScattered Clouds
5:00 AM51.8 °F51.8 °F100 %29.95 in6.2 miNorth (360°)3.5 mphMostly Cloudy
6:00 AM51.8 °F51.8 °F100 %29.95 in6.2 miNorth (360°)3.5 mphMostly Cloudy
7:00 AM51.8 °F51.8 °F100 %29.95 in6.2 miNorth (10°)2.3 mphScattered Clouds
8:00 AM51.8 °F51.8 °F100 %29.98 in1.2 miVariable1.2 mphRainLight Rain Showers
9:00 AM54.0 °F54.0 °F99 %29.99 in6.0 miNorth2.3 mphPartly Cloudy
9:00 AM53.6 °F53.6 °F100 %29.98 in6.2 miNorth (360°)2.3 mphMostly Cloudy
10:00 AM57.2 °F55.4 °F94 %29.98 in6.2 miNorth (360°)8.1 mphMostly Cloudy
11:00 AM60.8 °F55.4 °F82 %29.98 in6.2 miNNW (340°)5.8 mphScattered Clouds
12:00 PM60.8 °F53.6 °F77 %29.98 in6.2 miNW (320°)4.6 mphMostly Cloudy
12:00 PM62.0 °F53.0 °F65 %29.99 in6.0 miNW (320°)4.6 mphMostly Cloudy
1:00 PM64.4 °F53.6 °F68 %29.98 in6.2 miWNW (290°)5.8 mphMostly Cloudy
2:00 PM62.6 °F53.6 °F72 %29.98 in6.2 miWest (280°)6.9 mphMostly Cloudy
3:00 PM66.0 °F53.0 °F53 %29.98 in6.0 miWSW (240°)9.2 mphPartly Cloudy
3:00 PM66.2 °F53.6 °F64 %29.98 in6.2 miWSW (240°)9.2 mphMostly Cloudy
4:00 PM66.2 °F51.8 °F60 %29.98 in6.2 miSW (230°)10.4 mphMostly Cloudy
5:00 PM66.2 °F50.0 °F56 %29.98 in6.2 miWest (280°)8.1 mphMostly Cloudy
6:00 PM68.0 °F50.0 °F52 %29.98 in6.2 miWest (260°)8.1 mphMostly Cloudy
6:00 PM67.0 °F50.0 °F43 %29.98 in6.0 miWest (260°)8.1 mphMostly Cloudy
7:00 PM66.2 °F51.8 °F60 %29.98 in6.2 miWest (270°)8.1 mphMostly Cloudy
8:00 PM64.4 °F51.8 °F64 %29.98 in6.2 miWest (280°)6.9 mphMostly Cloudy
9:00 PM61.0 °F51.0 °F62 %29.99 in6.0 miNW (320°)3.5 mphMostly Cloudy
9:00 PM60.8 °F51.8 °F72 %29.98 in6.2 miNW (320°)3.5 mphMostly Cloudy
10:00 PM59.0 °F51.8 °F77 %30.01 in6.2 miNNW (330°)2.3 mphMostly Cloudy
11:00 PM59.0 °F51.8 °F77 %30.01 in6.2 miNNW (340°)4.6 mphOvercast
Hourly data recorded from SCTE, located miles away from Puerto Montt, Chile







STORIES FROM OUR PARTNERS